Flag for Russia Weather past 2 weeks in Voronezh, Russia

Now
34 °F

Light rain. Low clouds.


Feels Like: 21 °F
Forecast: 36 / 38 °F
Wind: 24 mph from Southeast

Location: Voronez

Current Time: Feb 1, 2015 at 1:55:26 AM

Latest Report: Feb 1, 2015 at 1:00 AM


Visibility: 2 mi

Pressure: 29.59 "Hg

Humidity: 93%

Dew point: 32 °F

Location of VoronezhLocation

Historic Weather in Voronezh — Graph

°F

Voronezh temperature yesterday

Maximum temperature yesterday: 37 °F (at 1:00 PM)
Minimum temperature yesterday: 28 °F (at 12:00 AM)
Average temperature yesterday: 35 °F

Past Weeks' High & Low Weather Summary

 TemperatureHumidityPressure
High37 °F (Jan 31, 1:00 PM)100% (Jan 17, 3:00 AM)30.51 "Hg (Jan 17, 3:00 AM)
Low5 °F (Jan 25, 1:30 AM)57% (Jan 25, 2:00 PM)29.56 "Hg (Jan 31, 10:30 PM)
Average23 °F85%30.19 "Hg
* Reported Jan 17 1:00 AM — Feb 1 1:00 AM, Voronezh, Weather by CustomWeather, © 2014

Note: Actual official high and low records may vary slightly from our data, if they occured in-between our weather recording intervals... More about our weather records

Advertising

Voronezh weather history for previous 24 hours

 ConditionsComfort  
Time TempWeatherWind HumidityBarometerVisibility
1:00 AM
Feb 1
34 °FLight rain. Low clouds.24 mph93%29.59 "Hg2 mi
12:00 AM34 °FLight rain. Overcast.24 mph87%29.59 "Hg4 mi
11:30 PM
Jan 31
36 °FPassing clouds.24 mph81%29.59 "HgN/A
11:00 PM34 °FPartly cloudy.26 mph87%29.56 "HgN/A
10:30 PM34 °FPartly cloudy.26 mph87%29.56 "HgN/A
10:00 PM34 °FPartly cloudy.26 mph87%29.59 "HgN/A
9:30 PM34 °FPartly cloudy.26 mph81%29.59 "HgN/A
9:00 PM34 °FClear.26 mph81%29.59 "Hg10 mi
8:30 PM34 °FClear.26 mph81%29.62 "Hg10 mi
8:00 PM34 °FClear.24 mph81%29.62 "Hg10 mi
7:30 PM36 °FClear.22 mph75%29.62 "Hg10 mi
7:00 PM36 °FClear.24 mph75%29.65 "Hg10 mi
6:00 PM36 °FSunny.24 mph81%29.65 "Hg10 mi
5:30 PM36 °FSunny.22 mph81%29.65 "Hg10 mi
5:00 PM36 °FSunny.22 mph75%29.65 "Hg10 mi
4:30 PM36 °FSunny.22 mph75%29.65 "Hg10 mi
4:00 PM36 °FSunny.22 mph75%29.65 "Hg10 mi
3:30 PM36 °FSunny.20 mph75%29.68 "Hg10 mi
3:00 PM36 °FSunny.22 mph75%29.68 "Hg10 mi
2:30 PM36 °FSunny.22 mph81%29.68 "Hg10 mi
2:00 PM36 °FPartly sunny.20 mph81%29.68 "HgN/A
1:30 PM36 °FPartly sunny.22 mph81%29.68 "HgN/A
1:00 PM37 °FPartly sunny.22 mph75%29.68 "HgN/A
12:30 PM36 °FPartly sunny.24 mph81%29.71 "HgN/A
12:00 PM36 °FPartly sunny.22 mph81%29.71 "HgN/A
11:30 AM36 °FPartly sunny.20 mph81%29.71 "HgN/A
11:00 AM36 °FPartly sunny.15 mph81%29.71 "HgN/A
10:30 AM34 °FOvercast.20 mph87%29.71 "HgN/A
10:00 AM36 °FOvercast.17 mph81%29.71 "HgN/A
9:30 AM36 °FOvercast.17 mph87%29.74 "HgN/A
9:00 AM36 °FLow clouds.15 mph87%29.74 "HgN/A
8:30 AM36 °FLow clouds.17 mph87%29.71 "HgN/A
8:00 AM36 °FLow clouds.17 mph87%29.71 "HgN/A
7:30 AM36 °FLow clouds.17 mph87%29.71 "HgN/A
7:00 AM36 °FLow clouds.15 mph87%29.71 "HgN/A
6:00 AM36 °FLow clouds.15 mph93%29.74 "Hg6 mi
5:30 AM36 °FLow clouds.17 mph93%29.74 "Hg5 mi
5:00 AM36 °FFog.15 mph93%29.74 "Hg3 mi
4:30 AM34 °FFog.13 mph93%29.74 "Hg3 mi
4:00 AM34 °FFog.17 mph93%29.74 "Hg3 mi
3:30 AM34 °FDrizzle. Fog.15 mph93%29.74 "Hg2 mi
3:00 AM32 °FDrizzle. Ice fog.13 mph100%29.74 "Hg2 mi
2:30 AM32 °FIce fog.15 mph93%29.77 "Hg2 mi
2:00 AM32 °FIce fog.17 mph93%29.77 "Hg2 mi
1:30 AM32 °FIce fog.15 mph93%29.77 "Hg2 mi
1:00 AM30 °FLight freezing rain. Ice fog.15 mph93%29.77 "Hg2 mi
Weather by CustomWeather, © 2014

See weather overviewHow to use our weather pages